{"data":{"norad_id":55575,"intl_designator":"2023-020G","name":"STARLINK-5745","alt_names":[],"object_type":"PAYLOAD","status":"ACTIVE","operator":null,"country":"US","launch_date":"2023-02-12","launch_site_code":"AFETR","launch_vehicle":null,"mission":null,"orbit_class":"UNKNOWN","rcs_meters":null,"size_class":null,"mass_kg":null,"dimensions":null,"purposes":["comms"],"wikipedia_slug":null,"has_3d_model":false,"image_url":null,"decayed_at":null,"tle_current":{"epoch":"2026-09-20T16:23:41.889408Z","epoch_age_seconds":84565,"freshness":"FRESH","line1":"1 55575U 23020G   26263.68312372 -.00000380  00000+0 -42774-5 0  9996","line2":"2 55575  43.0050 347.4686 0001296 289.1913  70.8798 15.27576474198690","mean_motion":15.27576474,"eccentricity":0.0001296,"inclination_deg":43.005,"raan_deg":347.4686,"arg_perigee_deg":289.1913,"mean_anomaly_deg":70.8798,"bstar":-4.2774e-6,"rev_number":19869,"period_min":94.266966303122,"perigee_km":482.17044308605,"apogee_km":483.94886525881,"semimajor_km":6861.1966541724,"source":"CELESTRAK","updated_at":"2026-09-21T09:00:33.263850Z"}}}